Weather History for K2I0 - February, 2013

Change the Weather History Date:

Monday, February 4, 2013

  Actual Average (KOWB) Record (KOWB)
Temperature  
Mean Temperature 39 °F -  
Max Temperature 53 °F 43 °F 73 °F (1962)
Min Temperature 25 °F 23 °F 0 °F (1939)
Degree Days  
Heating Degree Days 26    
Moisture  
Dew Point 34 °F    
Average Humidity 81    
Maximum Humidity 97    
Minimum Humidity 47    
Precipitation  
Precipitation 0.07 in - - ()
Sea Level Pressure  
Sea Level Pressure 29.96 in    
Wind  
Wind Speed 9 mph (SW)    
Max Wind Speed 25 mph    
Max Gust Speed 30 mph    
Visibility 10 miles    
Events Rain    
Averages and records for this station are not official NWS values.
T = Trace of Precipitation, MM = Missing Value Source: NWS Daily Summary

Daily Weather History Graph

Daily Weather History Graph

Search for Another Location

Airport or City:

Trip Planner

Search our weather history database for the weather conditions in past years. The results will help you decide how hot, cold, wet, or windy it might be!

Date:

Astronomy

Feb. 04, 2013 Rise Set
Actual Time 6:49 AM CST 5:17 PM CST
Civil Twilight 6:22 AM CST 5:44 PM CST
Nautical Twilight 5:51 AM CST 6:15 PM CST
Astronomical Twilight 5:21 AM CST 6:46 PM CST
Moon 1:23 AM CST (2/4) 11:42 AM CST (2/4)
Length of Visible Light 11h 22m
Length of Day
10h 27m
Last Quarter, 37% of the Moon is Illuminated
Feb 4
Last Quarter
Feb 10
New
Feb 17
First Quarter
Feb 25
Full
Mar 4
Last Quarter

Hourly Weather History & Observations

Time (CST) Temp. Windchill Dew Point Humidity Pressure Visibility Wind Dir Wind Speed Gust Speed Precip Events Conditions
12:15 AM 26.8 °F 22.8 °F 23.9 °F 89% 30.12 in 10.0 mi SE 3.5 mph - N/A   Clear
12:35 AM 26.8 °F 20.2 °F 23.5 °F 88% 30.11 in 10.0 mi South 5.8 mph - N/A   Clear
12:55 AM 25.5 °F - 22.5 °F 88% 30.11 in 10.0 mi Calm Calm - N/A   Clear
1:15 AM 26.4 °F 20.9 °F 23.2 °F 88% 30.11 in 10.0 mi South 4.6 mph - N/A   Clear
1:35 AM 27.5 °F 23.6 °F 23.2 °F 84% 30.11 in 10.0 mi South 3.5 mph - N/A   Clear
1:55 AM 27.1 °F 23.2 °F 23.5 °F 86% 30.11 in 10.0 mi South 3.5 mph - N/A   Clear
2:15 AM 27.5 °F 22.2 °F 23.9 °F 86% 30.11 in 10.0 mi South 4.6 mph - N/A   Clear
2:35 AM 27.3 °F - 23.9 °F 87% 30.11 in 10.0 mi Calm Calm - N/A   Clear
2:55 AM 27.5 °F 22.2 °F 23.9 °F 86% 30.10 in 10.0 mi SSE 4.6 mph - N/A   Clear
3:15 AM 27.5 °F 22.2 °F 23.9 °F 86% 30.09 in 10.0 mi SSE 4.6 mph - N/A   Clear
4:55 AM 30.2 °F 23.4 °F 26.1 °F 85% 30.05 in 10.0 mi South 6.9 mph - N/A   Clear
5:15 AM 30.2 °F 22.6 °F 26.2 °F 85% 30.03 in 10.0 mi SSE 8.1 mph - N/A   Clear
5:35 AM 30.2 °F 21.3 °F 26.4 °F 86% 30.03 in 10.0 mi South 10.4 mph - N/A   Clear
5:55 AM 30.9 °F 23.5 °F 27.0 °F 85% 30.01 in 10.0 mi South 8.1 mph - N/A   Clear
6:15 AM 31.1 °F 23.1 °F 27.1 °F 85% 30.02 in 10.0 mi South 9.2 mph - N/A   Clear
6:35 AM 31.3 °F 23.9 °F 27.5 °F 86% 30.01 in 10.0 mi South 8.1 mph - N/A   Clear
6:55 AM 31.6 °F 23.7 °F 27.9 °F 86% 30.01 in 10.0 mi South 9.2 mph - N/A   Clear
7:15 AM 32.0 °F 25.6 °F 28.4 °F 87% 30.01 in 10.0 mi South 6.9 mph - N/A   Mostly Cloudy
7:35 AM 32.5 °F 25.5 °F 28.4 °F 85% 30.01 in 10.0 mi South 8.1 mph - N/A   Overcast
7:55 AM 33.3 °F 24.6 °F 29.3 °F 85% 30.00 in 10.0 mi South 11.5 mph - N/A   Overcast
8:15 AM 34.2 °F 27.5 °F 29.3 °F 82% 30.01 in 10.0 mi South 8.1 mph - N/A   Overcast
8:35 AM 34.9 °F 26.6 °F 30.0 °F 82% 29.98 in 10.0 mi South 11.5 mph - N/A   Overcast
8:55 AM 35.8 °F 28.3 °F 30.2 °F 80% 29.97 in 10.0 mi South 10.4 mph - N/A   Mostly Cloudy
9:15 AM 36.9 °F 28.7 °F 30.6 °F 78% 29.97 in 10.0 mi South 12.7 mph - N/A   Scattered Clouds
9:35 AM 38.3 °F 31.9 °F 31.5 °F 76% 29.96 in 10.0 mi SSW 9.2 mph - N/A   Clear
9:55 AM 40.1 °F 32.0 °F 31.3 °F 71% 29.95 in 10.0 mi South 15.0 mph 18.4 mph N/A   Mostly Cloudy
10:15 AM 41.9 °F 34.6 °F 31.5 °F 66% 29.94 in 10.0 mi South 13.8 mph - N/A   Mostly Cloudy
10:35 AM 43.9 °F 37.5 °F 30.9 °F 60% 29.95 in 10.0 mi SSW 12.7 mph 21.9 mph N/A   Mostly Cloudy
10:55 AM 46.2 °F 41.2 °F 31.6 °F 57% 29.94 in 10.0 mi SW 10.4 mph - N/A   Scattered Clouds
11:15 AM 48.0 °F - 30.6 °F 51% 29.94 in 10.0 mi SW 15.0 mph 20.7 mph N/A   Scattered Clouds
11:35 AM 49.3 °F - 30.9 °F 49% 29.93 in 10.0 mi SW 15.0 mph - N/A   Scattered Clouds
11:55 AM 50.4 °F - 31.5 °F 48% 29.92 in 10.0 mi SW 12.7 mph - N/A   Mostly Cloudy
12:15 PM 51.3 °F - 32.2 °F 48% 29.91 in 10.0 mi SW 11.5 mph - N/A   Overcast
12:35 PM 52.0 °F - 32.0 °F 47% 29.90 in 10.0 mi WSW 18.4 mph 24.2 mph N/A   Overcast
12:55 PM 51.8 °F - 33.8 °F 50% 29.89 in 10.0 mi WSW 16.1 mph - N/A   Overcast
1:15 PM 52.3 °F - 33.8 °F 49% 29.89 in 10.0 mi WSW 15.0 mph - N/A   Mostly Cloudy
1:35 PM 52.5 °F - 33.3 °F 48% 29.89 in 10.0 mi WSW 20.7 mph - N/A   Mostly Cloudy
1:55 PM 53.2 °F - 35.2 °F 51% 29.88 in 10.0 mi WSW 20.7 mph 27.6 mph N/A   Overcast
2:15 PM 52.3 °F - 38.7 °F 60% 29.88 in 10.0 mi WSW 13.8 mph 27.6 mph N/A   Overcast
2:35 PM 51.3 °F - 39.7 °F 65% 29.88 in 10.0 mi WSW 21.9 mph 29.9 mph N/A   Overcast
2:55 PM 50.0 °F - 40.1 °F 69% 29.87 in 10.0 mi WSW 25.3 mph 28.8 mph N/A   Overcast
3:15 PM 48.6 °F - 41.9 °F 78% 29.88 in 10.0 mi WSW 15.0 mph 23.0 mph N/A Rain Light Rain
3:35 PM 47.3 °F - 43.2 °F 86% 29.88 in 10.0 mi WSW 18.4 mph 21.9 mph 0.01 in Rain Light Rain
3:55 PM 46.4 °F 40.1 °F 43.9 °F 91% 29.89 in 10.0 mi WSW 15.0 mph 19.6 mph 0.02 in Rain Rain
4:15 PM 46.4 °F 39.5 °F 44.1 °F 92% 29.89 in 7.0 mi WSW 17.3 mph - 0.02 in Rain Light Rain
4:35 PM 46.0 °F 39.6 °F 44.6 °F 95% 29.89 in 7.0 mi WSW 15.0 mph - 0.04 in Rain Light Rain
4:55 PM 45.7 °F 39.1 °F 44.6 °F 96% 29.89 in 5.0 mi WSW 15.0 mph - 0.05 in Rain Rain
5:15 PM 45.5 °F 40.3 °F 44.6 °F 97% 29.89 in 7.0 mi WSW 10.4 mph - N/A   Light Drizzle
5:35 PM 45.5 °F 39.2 °F 44.6 °F 97% 29.88 in 5.0 mi SW 13.8 mph - N/A Rain Light Rain
5:55 PM 45.5 °F 39.2 °F 44.6 °F 97% 29.90 in 10.0 mi WSW 13.8 mph - N/A   Light Drizzle
6:15 PM 45.5 °F 39.6 °F 44.6 °F 97% 29.90 in 10.0 mi WSW 12.7 mph 19.6 mph N/A   Overcast
6:35 PM 45.5 °F 39.6 °F 44.2 °F 95% 29.91 in 10.0 mi WSW 12.7 mph 21.9 mph N/A   Overcast
6:55 PM 45.3 °F 39.0 °F 44.2 °F 96% 29.90 in 10.0 mi WSW 13.8 mph - N/A   Overcast
7:15 PM 45.3 °F 39.7 °F 43.7 °F 94% 29.90 in 10.0 mi WSW 11.5 mph - N/A   Overcast
7:35 PM 44.4 °F 38.6 °F 42.8 °F 94% 29.90 in 10.0 mi WSW 11.5 mph - N/A   Scattered Clouds
7:55 PM 43.7 °F 39.7 °F 42.1 °F 94% 29.90 in 10.0 mi WSW 6.9 mph - N/A   Clear
8:15 PM 43.9 °F 39.3 °F 41.7 °F 92% 29.90 in 10.0 mi WSW 8.1 mph - N/A   Clear
8:35 PM 43.7 °F 39.1 °F 41.2 °F 91% 29.91 in 10.0 mi West 8.1 mph - N/A   Clear
8:55 PM 43.0 °F 38.2 °F 41.0 °F 93% 29.91 in 10.0 mi West 8.1 mph - N/A   Clear
9:15 PM 41.5 °F 36.4 °F 40.3 °F 95% 29.91 in 10.0 mi WSW 8.1 mph - N/A   Clear
9:35 PM 43.2 °F 38.4 °F 41.2 °F 93% 29.92 in 10.0 mi West 8.1 mph - N/A   Clear
9:55 PM 42.8 °F 39.3 °F 40.8 °F 93% 29.91 in 10.0 mi WSW 5.8 mph - N/A   Scattered Clouds
10:15 PM 41.4 °F 36.8 °F 39.7 °F 94% 29.91 in 10.0 mi WSW 6.9 mph - N/A   Clear
10:35 PM 41.0 °F 36.4 °F 39.4 °F 94% 29.91 in 10.0 mi WSW 6.9 mph - N/A   Clear
10:55 PM 41.0 °F 37.1 °F 39.4 °F 94% 29.91 in 10.0 mi WSW 5.8 mph - N/A   Clear
11:15 PM 41.4 °F 38.4 °F 40.1 °F 95% 29.91 in 10.0 mi SW 4.6 mph - N/A   Mostly Cloudy
11:35 PM 43.0 °F 38.2 °F 41.2 °F 93% 29.92 in 10.0 mi West 8.1 mph - N/A   Overcast
11:55 PM 44.1 °F 39.0 °F 41.5 °F 91% 29.92 in 10.0 mi West 9.2 mph - N/A   Overcast